Year,Month,Day,Hour,Minute,Value (Times are PST for temperature in C)
2012,07,17,00,00,19.60
2012,07,17,00,01,19.60
2012,07,17,00,02,19.50
2012,07,17,00,03,19.50
2012,07,17,00,04,19.40
2012,07,17,00,05,19.40
2012,07,17,00,06,19.40
2012,07,17,00,07,19.40
2012,07,17,00,08,19.40
2012,07,17,00,09,19.30
2012,07,17,00,10,19.30
2012,07,17,00,11,19.20
2012,07,17,00,12,19.20
2012,07,17,00,13,19.10
2012,07,17,00,14,19.10
2012,07,17,00,15,19.00
2012,07,17,00,16,19.00
2012,07,17,00,17,18.90
2012,07,17,00,18,18.90
2012,07,17,00,19,18.80
2012,07,17,00,20,18.80
2012,07,17,00,21,18.80
2012,07,17,00,22,18.70
2012,07,17,00,23,18.70
2012,07,17,00,24,18.70
2012,07,17,00,25,18.70
2012,07,17,00,26,18.60
2012,07,17,00,27,18.60
2012,07,17,00,28,18.60
2012,07,17,00,29,18.60
2012,07,17,00,30,18.60
2012,07,17,00,31,18.60
2012,07,17,00,32,18.70
2012,07,17,00,33,18.70
2012,07,17,00,34,18.80
2012,07,17,00,35,18.80
2012,07,17,00,36,18.80
2012,07,17,00,37,18.90
2012,07,17,00,38,18.90
2012,07,17,00,39,19.00
2012,07,17,00,40,19.10
2012,07,17,00,41,19.10
2012,07,17,00,42,19.20
2012,07,17,00,43,19.20
2012,07,17,00,44,19.30
2012,07,17,00,45,19.40
2012,07,17,00,46,19.50
2012,07,17,00,47,19.50
2012,07,17,00,48,19.60
2012,07,17,00,49,19.60
2012,07,17,00,50,19.70
2012,07,17,00,51,19.80
2012,07,17,00,52,19.90
2012,07,17,00,53,20.00
2012,07,17,00,54,20.10
2012,07,17,00,55,20.10
2012,07,17,00,56,20.10
2012,07,17,00,57,20.10
2012,07,17,00,58,20.10
2012,07,17,00,59,20.10
2012,07,17,01,00,20.10
2012,07,17,01,01,20.10
2012,07,17,01,02,20.00
2012,07,17,01,03,20.00
2012,07,17,01,04,20.00
2012,07,17,01,05,20.00
2012,07,17,01,06,20.00
2012,07,17,01,07,20.10
2012,07,17,01,08,20.10
2012,07,17,01,09,20.10
2012,07,17,01,10,20.10
2012,07,17,01,11,20.20
2012,07,17,01,12,20.20
2012,07,17,01,13,20.20
2012,07,17,01,14,20.30
2012,07,17,01,15,20.30
2012,07,17,01,16,20.40
2012,07,17,01,17,20.40
2012,07,17,01,18,20.50
2012,07,17,01,19,20.60
2012,07,17,01,20,20.60
2012,07,17,01,21,20.70
2012,07,17,01,22,20.70
2012,07,17,01,23,20.70
2012,07,17,01,24,20.70
2012,07,17,01,25,20.80
2012,07,17,01,26,20.80
2012,07,17,01,27,20.80
2012,07,17,01,28,20.80
2012,07,17,01,29,20.80
2012,07,17,01,30,20.80
2012,07,17,01,31,20.80
2012,07,17,01,32,20.80
2012,07,17,01,33,20.80
2012,07,17,01,34,20.80
2012,07,17,01,35,20.80
2012,07,17,01,36,20.80
2012,07,17,01,37,20.80
2012,07,17,01,38,20.80
2012,07,17,01,39,20.90
2012,07,17,01,40,20.90
2012,07,17,01,41,20.90
2012,07,17,01,42,20.90
2012,07,17,01,43,20.90
2012,07,17,01,44,20.90
2012,07,17,01,45,20.90
2012,07,17,01,46,20.90
2012,07,17,01,47,20.90
2012,07,17,01,48,20.90
2012,07,17,01,49,20.90
2012,07,17,01,50,20.80
2012,07,17,01,51,20.80
2012,07,17,01,52,20.70
2012,07,17,01,53,20.60
2012,07,17,01,54,20.60
2012,07,17,01,55,20.50
2012,07,17,01,56,20.40
2012,07,17,01,57,20.30
2012,07,17,01,58,20.10
2012,07,17,01,59,20.00
2012,07,17,02,00,19.90
2012,07,17,02,01,19.80
2012,07,17,02,02,19.70
2012,07,17,02,03,19.50
2012,07,17,02,04,19.40
2012,07,17,02,05,19.30
2012,07,17,02,06,19.20
2012,07,17,02,07,19.10
2012,07,17,02,08,19.00
2012,07,17,02,09,18.90
2012,07,17,02,10,18.90
2012,07,17,02,11,18.80
2012,07,17,02,12,18.70
2012,07,17,02,13,18.60
2012,07,17,02,14,18.60
2012,07,17,02,15,18.50
2012,07,17,02,16,18.50
2012,07,17,02,17,18.40
2012,07,17,02,18,18.40
2012,07,17,02,19,18.30
2012,07,17,02,20,18.30
2012,07,17,02,21,18.20
2012,07,17,02,22,18.20
2012,07,17,02,23,18.10
2012,07,17,02,24,18.10
2012,07,17,02,25,18.10
2012,07,17,02,26,18.10
2012,07,17,02,27,18.00
2012,07,17,02,28,18.00
2012,07,17,02,29,18.00
2012,07,17,02,30,18.00
2012,07,17,02,31,18.00
2012,07,17,02,32,17.90
2012,07,17,02,33,17.90
2012,07,17,02,34,18.00
2012,07,17,02,35,18.00
2012,07,17,02,36,18.00
2012,07,17,02,37,18.00
2012,07,17,02,38,18.10
2012,07,17,02,39,18.00
2012,07,17,02,40,18.00
2012,07,17,02,41,18.10
2012,07,17,02,42,18.10
2012,07,17,02,43,18.10
2012,07,17,02,44,18.20
2012,07,17,02,45,18.20
2012,07,17,02,46,18.20
2012,07,17,02,47,18.10
2012,07,17,02,48,18.10
2012,07,17,02,49,18.00
2012,07,17,02,50,17.90
2012,07,17,02,51,17.90
2012,07,17,02,52,17.80
2012,07,17,02,53,17.80
2012,07,17,02,54,17.70
2012,07,17,02,55,17.60
2012,07,17,02,56,17.60
2012,07,17,02,57,17.50
2012,07,17,02,58,17.40
2012,07,17,02,59,17.40
2012,07,17,03,00,17.30
2012,07,17,03,01,17.30
2012,07,17,03,02,17.30
2012,07,17,03,03,17.20
2012,07,17,03,04,17.20
2012,07,17,03,05,17.20
2012,07,17,03,06,17.20
2012,07,17,03,07,17.20
2012,07,17,03,08,17.10
2012,07,17,03,09,17.10
2012,07,17,03,10,17.10
2012,07,17,03,11,17.10
2012,07,17,03,12,17.00
2012,07,17,03,13,17.00
2012,07,17,03,14,17.00
2012,07,17,03,15,16.90
2012,07,17,03,16,16.90
2012,07,17,03,17,16.90
2012,07,17,03,18,16.90
2012,07,17,03,19,16.90
2012,07,17,03,20,16.90
2012,07,17,03,21,16.80
2012,07,17,03,22,16.80
2012,07,17,03,23,16.80
2012,07,17,03,24,16.80
2012,07,17,03,25,16.80
2012,07,17,03,26,16.80
2012,07,17,03,27,16.80
2012,07,17,03,28,16.80
2012,07,17,03,29,16.80
2012,07,17,03,30,16.80
2012,07,17,03,31,16.70
2012,07,17,03,32,16.70
2012,07,17,03,33,16.70
2012,07,17,03,34,16.70
2012,07,17,03,35,16.70
2012,07,17,03,36,16.60
2012,07,17,03,37,16.60
2012,07,17,03,38,16.60
2012,07,17,03,39,16.50
2012,07,17,03,40,16.50
2012,07,17,03,41,16.50
2012,07,17,03,42,16.40
2012,07,17,03,43,16.40
2012,07,17,03,44,16.40
2012,07,17,03,45,16.40
2012,07,17,03,46,16.40
2012,07,17,03,47,16.40
2012,07,17,03,48,16.40
2012,07,17,03,49,16.40
2012,07,17,03,50,16.30
2012,07,17,03,51,16.30
2012,07,17,03,52,16.30
2012,07,17,03,53,16.30
2012,07,17,03,54,16.30
2012,07,17,03,55,16.30
2012,07,17,03,56,16.30
2012,07,17,03,57,16.30
2012,07,17,03,58,16.30
2012,07,17,03,59,16.30
2012,07,17,04,00,16.20
2012,07,17,04,01,16.20
2012,07,17,04,02,16.20
2012,07,17,04,03,16.20
2012,07,17,04,04,16.20
2012,07,17,04,05,16.20
2012,07,17,04,06,16.20
2012,07,17,04,07,16.20
2012,07,17,04,08,16.20
2012,07,17,04,09,16.20
2012,07,17,04,10,16.20
2012,07,17,04,11,16.30
2012,07,17,04,12,16.30
2012,07,17,04,13,16.30
2012,07,17,04,14,16.30
2012,07,17,04,15,16.30
2012,07,17,04,16,16.30
2012,07,17,04,17,16.40
2012,07,17,04,18,16.40
2012,07,17,04,19,16.50
2012,07,17,04,20,16.60
2012,07,17,04,21,16.60
2012,07,17,04,22,16.80
2012,07,17,04,23,16.90
2012,07,17,04,24,17.10
2012,07,17,04,25,17.20
2012,07,17,04,26,17.30
2012,07,17,04,27,17.40
2012,07,17,04,28,17.50
2012,07,17,04,29,17.60
2012,07,17,04,30,17.70
2012,07,17,04,31,17.80
2012,07,17,04,32,18.00
2012,07,17,04,33,18.00
2012,07,17,04,34,18.10
2012,07,17,04,35,18.20
2012,07,17,04,36,18.20
2012,07,17,04,37,18.20
2012,07,17,04,38,18.30
2012,07,17,04,39,18.30
2012,07,17,04,40,18.30
2012,07,17,04,41,18.30
2012,07,17,04,42,18.30
2012,07,17,04,43,18.20
2012,07,17,04,44,18.20
2012,07,17,04,45,18.20
2012,07,17,04,46,18.10
2012,07,17,04,47,18.10
2012,07,17,04,48,18.10
2012,07,17,04,49,18.10
2012,07,17,04,50,18.10
2012,07,17,04,51,18.10
2012,07,17,04,52,18.10
2012,07,17,04,53,18.20
2012,07,17,04,54,18.20
2012,07,17,04,55,18.20
2012,07,17,04,56,18.20
2012,07,17,04,57,18.20
2012,07,17,04,58,18.20
2012,07,17,04,59,18.20
2012,07,17,05,00,18.30
2012,07,17,05,01,18.30
2012,07,17,05,02,18.30
2012,07,17,05,03,18.30
2012,07,17,05,04,18.30
2012,07,17,05,05,18.30
2012,07,17,05,06,18.30
2012,07,17,05,07,18.30
2012,07,17,05,08,18.30
2012,07,17,05,09,18.30
2012,07,17,05,10,18.30
2012,07,17,05,11,18.30
2012,07,17,05,12,18.30
2012,07,17,05,13,18.30
2012,07,17,05,14,18.20
2012,07,17,05,15,18.20
2012,07,17,05,16,18.20
2012,07,17,05,17,18.10
2012,07,17,05,18,18.10
2012,07,17,05,19,18.10
2012,07,17,05,20,18.10
2012,07,17,05,21,18.10
2012,07,17,05,22,18.00
2012,07,17,05,23,18.00
2012,07,17,05,24,18.00
2012,07,17,05,25,17.90
2012,07,17,05,26,17.90
2012,07,17,05,27,17.90
2012,07,17,05,28,17.80
2012,07,17,05,29,17.80
2012,07,17,05,30,17.80
2012,07,17,05,31,17.70
2012,07,17,05,32,17.70
2012,07,17,05,33,17.60
2012,07,17,05,34,17.50
2012,07,17,05,35,17.50
2012,07,17,05,36,17.40
2012,07,17,05,37,17.30
2012,07,17,05,38,17.30
2012,07,17,05,39,17.20
2012,07,17,05,40,17.10
2012,07,17,05,41,17.00
2012,07,17,05,42,16.90
2012,07,17,05,43,16.80
2012,07,17,05,44,16.80
2012,07,17,05,45,16.70
2012,07,17,05,46,16.60
2012,07,17,05,47,16.60
2012,07,17,05,48,16.50
2012,07,17,05,49,16.50
2012,07,17,05,50,16.50
2012,07,17,05,51,16.50
2012,07,17,05,52,16.40
2012,07,17,05,53,16.40
2012,07,17,05,54,16.40
2012,07,17,05,55,16.40
2012,07,17,05,56,16.40
2012,07,17,05,57,16.40
2012,07,17,05,58,16.40
2012,07,17,05,59,16.40
2012,07,17,06,00,16.40
2012,07,17,06,01,16.40
2012,07,17,06,02,16.30
2012,07,17,06,03,16.30
2012,07,17,06,04,16.30
2012,07,17,06,05,16.30
2012,07,17,06,06,16.30
2012,07,17,06,07,16.30
2012,07,17,06,08,16.40
2012,07,17,06,09,16.40
2012,07,17,06,10,16.40
2012,07,17,06,11,16.40
2012,07,17,06,12,16.40
2012,07,17,06,13,16.40
2012,07,17,06,14,16.40
2012,07,17,06,15,16.40
2012,07,17,06,16,16.40
2012,07,17,06,17,16.30
2012,07,17,06,18,16.30
2012,07,17,06,19,16.30
2012,07,17,06,20,16.30
2012,07,17,06,21,16.30
2012,07,17,06,22,16.30
2012,07,17,06,23,16.30
2012,07,17,06,24,16.30
2012,07,17,06,25,16.30
2012,07,17,06,26,16.30
2012,07,17,06,27,16.30
2012,07,17,06,28,16.30
2012,07,17,06,29,16.20
2012,07,17,06,30,16.20
2012,07,17,06,31,16.20
2012,07,17,06,32,16.10
2012,07,17,06,33,16.10
2012,07,17,06,34,16.00
2012,07,17,06,35,16.00
2012,07,17,06,36,15.90
2012,07,17,06,37,15.90
2012,07,17,06,38,15.90
2012,07,17,06,39,15.90
2012,07,17,06,40,15.90
2012,07,17,06,41,15.80
2012,07,17,06,42,15.80
2012,07,17,06,43,15.80
2012,07,17,06,44,15.80
2012,07,17,06,45,15.80
2012,07,17,06,46,15.80
2012,07,17,06,47,15.70
2012,07,17,06,48,15.70
2012,07,17,06,49,15.70
2012,07,17,06,50,15.70
2012,07,17,06,51,15.70
2012,07,17,06,52,15.70
2012,07,17,06,53,15.70
2012,07,17,06,54,15.80
2012,07,17,06,55,15.80
2012,07,17,06,56,15.80
2012,07,17,06,57,15.80
2012,07,17,06,58,15.80
2012,07,17,06,59,15.80
2012,07,17,07,00,15.90
2012,07,17,07,01,15.90
2012,07,17,07,02,15.90
2012,07,17,07,03,16.00
2012,07,17,07,04,16.00
2012,07,17,07,05,16.10
2012,07,17,07,06,16.20
2012,07,17,07,07,16.30
2012,07,17,07,08,16.30
2012,07,17,07,09,16.40
2012,07,17,07,10,16.50
2012,07,17,07,11,16.60
2012,07,17,07,12,16.70
2012,07,17,07,13,16.80
2012,07,17,07,14,16.90
2012,07,17,07,15,17.00
2012,07,17,07,16,17.10
2012,07,17,07,17,17.20
2012,07,17,07,18,17.30
2012,07,17,07,19,17.40
2012,07,17,07,20,17.50
2012,07,17,07,21,17.60
2012,07,17,07,22,17.70
2012,07,17,07,23,17.70
2012,07,17,07,24,17.90
2012,07,17,07,25,17.90
2012,07,17,07,26,18.00
2012,07,17,07,27,18.10
2012,07,17,07,28,18.20
2012,07,17,07,29,18.30
2012,07,17,07,30,18.40
2012,07,17,07,31,18.50
2012,07,17,07,32,18.50
2012,07,17,07,33,18.60
2012,07,17,07,34,18.70
2012,07,17,07,35,18.80
2012,07,17,07,36,18.80
2012,07,17,07,37,18.90
2012,07,17,07,38,19.00
2012,07,17,07,39,19.10
2012,07,17,07,40,19.20
2012,07,17,07,41,19.30
2012,07,17,07,42,19.40
2012,07,17,07,43,19.40
2012,07,17,07,44,19.50
2012,07,17,07,45,19.50
2012,07,17,07,46,19.60
2012,07,17,07,47,19.70
2012,07,17,07,48,19.80
2012,07,17,07,49,19.90
2012,07,17,07,50,19.90
2012,07,17,07,51,20.00
2012,07,17,07,52,20.00
2012,07,17,07,53,20.10
2012,07,17,07,54,20.10
2012,07,17,07,55,20.10
2012,07,17,07,56,20.10
2012,07,17,07,57,20.10
2012,07,17,07,58,20.00
2012,07,17,07,59,19.90
2012,07,17,08,00,19.80
2012,07,17,08,01,19.80
2012,07,17,08,02,19.80
2012,07,17,08,03,19.80
2012,07,17,08,04,19.80
2012,07,17,08,05,19.80
2012,07,17,08,06,19.80
2012,07,17,08,07,19.80
2012,07,17,08,08,19.80
2012,07,17,08,09,19.80
2012,07,17,08,10,19.70
2012,07,17,08,11,19.60
2012,07,17,08,12,19.60
2012,07,17,08,13,19.70
2012,07,17,08,14,19.70
2012,07,17,08,15,19.60
2012,07,17,08,16,19.60
2012,07,17,08,17,19.60
2012,07,17,08,18,19.60
2012,07,17,08,19,19.50
2012,07,17,08,20,19.50
2012,07,17,08,21,19.50
2012,07,17,08,22,19.60
2012,07,17,08,23,19.60
2012,07,17,08,24,19.60
2012,07,17,08,25,19.70
2012,07,17,08,26,19.70
2012,07,17,08,27,19.60
2012,07,17,08,28,19.60
2012,07,17,08,29,19.50
2012,07,17,08,30,19.40
2012,07,17,08,31,19.40
2012,07,17,08,32,19.30
2012,07,17,08,33,19.30
2012,07,17,08,34,19.30
2012,07,17,08,35,19.20
2012,07,17,08,36,19.10
2012,07,17,08,37,19.10
2012,07,17,08,38,19.10
2012,07,17,08,39,19.10
2012,07,17,08,40,19.20
2012,07,17,08,41,19.20
2012,07,17,08,42,19.20
2012,07,17,08,43,19.20
2012,07,17,08,44,19.20
2012,07,17,08,45,19.20
2012,07,17,08,46,19.20
2012,07,17,08,47,19.20
2012,07,17,08,48,19.20
2012,07,17,08,49,19.20
2012,07,17,08,50,19.20
2012,07,17,08,51,19.10
2012,07,17,08,52,19.10
2012,07,17,08,53,19.10
2012,07,17,08,54,19.00
2012,07,17,08,55,19.00
2012,07,17,08,56,19.00
2012,07,17,08,57,19.10
2012,07,17,08,58,19.10
2012,07,17,08,59,19.00
2012,07,17,09,00,19.00
2012,07,17,09,01,19.00
2012,07,17,09,02,18.90
2012,07,17,09,03,18.90
2012,07,17,09,04,18.90
2012,07,17,09,05,18.90
2012,07,17,09,06,18.90
2012,07,17,09,07,18.90
2012,07,17,09,08,18.90
2012,07,17,09,09,18.80
2012,07,17,09,10,18.70
2012,07,17,09,11,18.70
2012,07,17,09,12,18.70
2012,07,17,09,13,18.70
2012,07,17,09,14,18.70
2012,07,17,09,15,18.70
2012,07,17,09,16,18.70
2012,07,17,09,17,18.70
2012,07,17,09,18,18.70
2012,07,17,09,19,18.70
2012,07,17,09,20,18.70
2012,07,17,09,21,18.70
2012,07,17,09,22,18.70
2012,07,17,09,23,18.70
2012,07,17,09,24,18.70
2012,07,17,09,25,18.70
2012,07,17,09,26,18.70
2012,07,17,09,27,18.80
2012,07,17,09,28,18.80
2012,07,17,09,29,18.90
2012,07,17,09,30,18.90
2012,07,17,09,31,18.80
2012,07,17,09,32,18.80
2012,07,17,09,33,18.80
2012,07,17,09,34,18.90
2012,07,17,09,35,18.80
2012,07,17,09,36,18.80
2012,07,17,09,37,18.70
2012,07,17,09,38,18.60
2012,07,17,09,39,18.60
2012,07,17,09,40,18.60
2012,07,17,09,41,18.60
2012,07,17,09,42,18.70
2012,07,17,09,43,18.70
2012,07,17,09,44,18.80
2012,07,17,09,45,18.80
2012,07,17,09,46,18.80
2012,07,17,09,47,18.80
2012,07,17,09,48,18.80
2012,07,17,09,49,18.80
2012,07,17,09,50,18.70
2012,07,17,09,51,18.60
2012,07,17,09,52,18.60
2012,07,17,09,53,18.60
2012,07,17,09,54,18.60
2012,07,17,09,55,18.60
2012,07,17,09,56,18.60
2012,07,17,09,57,18.50
2012,07,17,09,58,18.60
2012,07,17,09,59,18.60
2012,07,17,10,00,18.60
2012,07,17,10,01,18.60
2012,07,17,10,02,18.60
2012,07,17,10,03,18.70
2012,07,17,10,04,18.70
2012,07,17,10,05,18.70
2012,07,17,10,06,18.70
2012,07,17,10,07,18.70
2012,07,17,10,08,18.60
2012,07,17,10,09,18.60
2012,07,17,10,10,18.60
2012,07,17,10,11,18.70
2012,07,17,10,12,18.70
2012,07,17,10,13,18.70
2012,07,17,10,14,18.70
2012,07,17,10,15,18.70
2012,07,17,10,16,18.60
2012,07,17,10,17,18.60
2012,07,17,10,18,18.50
2012,07,17,10,19,18.50
2012,07,17,10,20,18.40
2012,07,17,10,21,18.40
2012,07,17,10,22,18.40
2012,07,17,10,23,18.60
2012,07,17,10,24,18.60
2012,07,17,10,25,18.70
2012,07,17,10,26,18.70
2012,07,17,10,27,18.70
2012,07,17,10,28,18.70
2012,07,17,10,29,18.70
2012,07,17,10,30,18.70
2012,07,17,10,31,18.70
2012,07,17,10,32,18.70
2012,07,17,10,33,18.70
2012,07,17,10,34,18.70
2012,07,17,10,35,18.80
2012,07,17,10,36,18.80
2012,07,17,10,37,18.80
2012,07,17,10,38,18.80
2012,07,17,10,39,18.80
2012,07,17,10,40,18.80
2012,07,17,10,41,18.80
2012,07,17,10,42,18.90
2012,07,17,10,43,18.90
2012,07,17,10,44,19.00
2012,07,17,10,45,19.00
2012,07,17,10,46,19.10
2012,07,17,10,47,19.00
2012,07,17,10,48,19.00
2012,07,17,10,49,19.00
2012,07,17,10,50,18.90
2012,07,17,10,51,18.90
2012,07,17,10,52,18.90
2012,07,17,10,53,18.90
2012,07,17,10,54,18.90
2012,07,17,10,55,19.00
2012,07,17,10,56,19.00
2012,07,17,10,57,19.10
2012,07,17,10,58,19.20
2012,07,17,10,59,19.20
2012,07,17,11,00,19.30
2012,07,17,11,01,19.30
2012,07,17,11,02,19.30
2012,07,17,11,03,19.20
2012,07,17,11,04,19.10
2012,07,17,11,05,19.20
2012,07,17,11,06,19.20
2012,07,17,11,07,19.20
2012,07,17,11,08,19.20
2012,07,17,11,09,19.20
2012,07,17,11,10,19.30
2012,07,17,11,11,19.30
2012,07,17,11,12,19.30
2012,07,17,11,13,19.30
2012,07,17,11,14,19.30
2012,07,17,11,15,19.30
2012,07,17,11,16,19.30
2012,07,17,11,17,19.30
2012,07,17,11,18,19.30
2012,07,17,11,19,19.30
2012,07,17,11,20,19.30
2012,07,17,11,21,19.30
2012,07,17,11,22,19.30
2012,07,17,11,23,19.40
2012,07,17,11,24,19.40
2012,07,17,11,25,19.40
2012,07,17,11,26,19.40
2012,07,17,11,27,19.40
2012,07,17,11,28,19.40
2012,07,17,11,29,19.40
2012,07,17,11,30,19.50
2012,07,17,11,31,19.50
2012,07,17,11,32,19.40
2012,07,17,11,33,19.40
2012,07,17,11,34,19.40
2012,07,17,11,35,19.40
2012,07,17,11,36,19.30
2012,07,17,11,37,19.30
2012,07,17,11,38,19.20
2012,07,17,11,39,19.20
2012,07,17,11,40,19.20
2012,07,17,11,41,19.20
2012,07,17,11,42,19.20
2012,07,17,11,43,19.20
2012,07,17,11,44,19.20
2012,07,17,11,45,19.20
2012,07,17,11,46,19.10
2012,07,17,11,47,19.10
2012,07,17,11,48,19.10
2012,07,17,11,49,19.10
2012,07,17,11,50,19.00
2012,07,17,11,51,19.00
2012,07,17,11,52,19.00
2012,07,17,11,53,19.10
2012,07,17,11,54,19.10
2012,07,17,11,55,19.10
2012,07,17,11,56,19.10
2012,07,17,11,57,19.10
2012,07,17,11,58,19.20
2012,07,17,11,59,19.10
2012,07,17,12,00,19.10
2012,07,17,12,01,19.10
2012,07,17,12,02,19.10
2012,07,17,12,03,19.20
2012,07,17,12,04,19.30
2012,07,17,12,05,19.30
2012,07,17,12,06,19.30
2012,07,17,12,07,19.30
2012,07,17,12,08,19.30
2012,07,17,12,09,19.30
2012,07,17,12,10,19.20
2012,07,17,12,11,19.20
2012,07,17,12,12,19.30
2012,07,17,12,13,19.30
2012,07,17,12,14,19.40
2012,07,17,12,15,19.40
2012,07,17,12,16,19.30
2012,07,17,12,17,19.30
2012,07,17,12,18,19.20
2012,07,17,12,19,19.20
2012,07,17,12,20,19.20
2012,07,17,12,21,19.30
2012,07,17,12,22,19.30
2012,07,17,12,23,19.30
2012,07,17,12,24,19.40
2012,07,17,12,25,19.60
2012,07,17,12,26,19.60
2012,07,17,12,27,19.70
2012,07,17,12,28,19.80
2012,07,17,12,29,19.80
2012,07,17,12,30,19.90
2012,07,17,12,31,19.90
2012,07,17,12,32,19.90
2012,07,17,12,33,19.90
2012,07,17,12,34,19.90
2012,07,17,12,35,20.00
2012,07,17,12,36,20.10
2012,07,17,12,37,20.20
2012,07,17,12,38,20.20
2012,07,17,12,39,20.20
2012,07,17,12,40,20.20
2012,07,17,12,41,20.30
2012,07,17,12,42,20.40
2012,07,17,12,43,20.50
2012,07,17,12,44,20.60
2012,07,17,12,45,20.70
2012,07,17,12,46,20.70
2012,07,17,12,47,20.70
2012,07,17,12,48,20.70
2012,07,17,12,49,20.70
2012,07,17,12,50,20.80
2012,07,17,12,51,20.80
2012,07,17,12,52,20.80
2012,07,17,12,53,20.80
2012,07,17,12,54,20.90
2012,07,17,12,55,20.90
2012,07,17,12,56,21.00
2012,07,17,12,57,21.00
2012,07,17,12,58,21.10
2012,07,17,12,59,21.20
2012,07,17,13,00,21.20
2012,07,17,13,01,21.30
2012,07,17,13,02,21.40
2012,07,17,13,03,21.40
2012,07,17,13,04,21.50
2012,07,17,13,05,21.50
2012,07,17,13,06,21.50
2012,07,17,13,07,21.60
2012,07,17,13,08,21.60
2012,07,17,13,09,21.70
2012,07,17,13,10,21.80
2012,07,17,13,11,21.80
2012,07,17,13,12,21.80
2012,07,17,13,13,21.90
2012,07,17,13,14,21.90
2012,07,17,13,15,22.00
2012,07,17,13,16,22.10
2012,07,17,13,17,22.10
2012,07,17,13,18,22.10
2012,07,17,13,19,22.10
2012,07,17,13,20,22.10
2012,07,17,13,21,22.10
2012,07,17,13,22,22.10
2012,07,17,13,23,22.00
2012,07,17,13,24,21.90
2012,07,17,13,25,21.80
2012,07,17,13,26,21.80
2012,07,17,13,27,21.80
2012,07,17,13,28,21.70
2012,07,17,13,29,21.70
2012,07,17,13,30,21.60
2012,07,17,13,31,21.50
2012,07,17,13,32,21.50
2012,07,17,13,33,21.50
2012,07,17,13,34,21.50
2012,07,17,13,35,21.50
2012,07,17,13,36,21.60
2012,07,17,13,37,21.60
2012,07,17,13,38,21.50
2012,07,17,13,39,21.40
2012,07,17,13,40,21.30
2012,07,17,13,41,21.30
2012,07,17,13,42,21.40
2012,07,17,13,43,21.40
2012,07,17,13,44,21.40
2012,07,17,13,45,21.40
2012,07,17,13,46,21.50
2012,07,17,13,47,21.60
2012,07,17,13,48,21.60
2012,07,17,13,49,21.70
2012,07,17,13,50,21.70
2012,07,17,13,51,21.60
2012,07,17,13,52,21.60
2012,07,17,13,53,21.50
2012,07,17,13,54,21.50
2012,07,17,13,55,21.50
2012,07,17,13,56,21.50
2012,07,17,13,57,21.40
2012,07,17,13,58,21.40
2012,07,17,13,59,21.30
2012,07,17,14,00,21.30
2012,07,17,14,01,21.30
2012,07,17,14,02,21.30
2012,07,17,14,03,21.40
2012,07,17,14,04,21.40
2012,07,17,14,05,21.40
2012,07,17,14,06,21.50
2012,07,17,14,07,21.50
2012,07,17,14,08,21.50
2012,07,17,14,09,21.60
2012,07,17,14,10,21.70
2012,07,17,14,11,21.70
2012,07,17,14,12,21.70
2012,07,17,14,13,21.70
2012,07,17,14,14,21.70
2012,07,17,14,15,21.70
2012,07,17,14,16,21.60
2012,07,17,14,17,21.60
2012,07,17,14,18,21.60
2012,07,17,14,19,21.70
2012,07,17,14,20,21.80
2012,07,17,14,21,21.80
2012,07,17,14,22,21.80
2012,07,17,14,23,21.90
2012,07,17,14,24,21.90
2012,07,17,14,25,21.90
2012,07,17,14,26,21.90
2012,07,17,14,27,21.90
2012,07,17,14,28,21.90
2012,07,17,14,29,21.90
2012,07,17,14,30,21.80
2012,07,17,14,31,21.80
2012,07,17,14,32,21.80
2012,07,17,14,33,21.90
2012,07,17,14,34,21.90
2012,07,17,14,35,21.90
2012,07,17,14,36,21.90
2012,07,17,14,37,21.90
2012,07,17,14,38,21.90
2012,07,17,14,39,21.90
2012,07,17,14,40,21.90
2012,07,17,14,41,21.90
2012,07,17,14,42,21.90
2012,07,17,14,43,22.00
2012,07,17,14,44,22.10
2012,07,17,14,45,22.10
2012,07,17,14,46,22.10
2012,07,17,14,47,22.20
2012,07,17,14,48,22.30
2012,07,17,14,49,22.40
2012,07,17,14,50,22.40
2012,07,17,14,51,22.50
2012,07,17,14,52,22.60
2012,07,17,14,53,22.60
2012,07,17,14,54,22.50
2012,07,17,14,55,22.50
2012,07,17,14,56,22.50
2012,07,17,14,57,22.50
2012,07,17,14,58,22.60
2012,07,17,14,59,22.60
2012,07,17,15,00,22.60
2012,07,17,15,01,22.70
2012,07,17,15,02,22.60
2012,07,17,15,03,22.60
2012,07,17,15,04,22.70
2012,07,17,15,05,22.80
2012,07,17,15,06,22.80
2012,07,17,15,07,22.80
2012,07,17,15,08,22.80
2012,07,17,15,09,22.80
2012,07,17,15,10,22.80
2012,07,17,15,11,22.80
2012,07,17,15,12,22.80
2012,07,17,15,13,22.90
2012,07,17,15,14,22.90
2012,07,17,15,15,22.90
2012,07,17,15,16,22.90
2012,07,17,15,17,22.90
2012,07,17,15,18,22.90
2012,07,17,15,19,23.00
2012,07,17,15,20,23.00
2012,07,17,15,21,23.10
2012,07,17,15,22,23.10
2012,07,17,15,23,23.10
2012,07,17,15,24,23.10
2012,07,17,15,25,23.10
2012,07,17,15,26,23.20
2012,07,17,15,27,23.20
2012,07,17,15,28,23.20
2012,07,17,15,29,23.10
2012,07,17,15,30,23.10
2012,07,17,15,31,23.10
2012,07,17,15,32,23.10
2012,07,17,15,33,23.10
2012,07,17,15,34,23.20
2012,07,17,15,35,23.20
2012,07,17,15,36,23.20
2012,07,17,15,37,23.20
2012,07,17,15,38,23.20
2012,07,17,15,39,23.30
2012,07,17,15,40,23.30
2012,07,17,15,41,23.30
2012,07,17,15,42,23.30
2012,07,17,15,43,23.30
2012,07,17,15,44,23.40
2012,07,17,15,45,23.30
2012,07,17,15,46,23.30
2012,07,17,15,47,23.20
2012,07,17,15,48,23.10
2012,07,17,15,49,23.00
2012,07,17,15,50,23.00
2012,07,17,15,51,23.00
2012,07,17,15,52,23.10
2012,07,17,15,53,23.10
2012,07,17,15,54,23.10
2012,07,17,15,55,23.00
2012,07,17,15,56,23.10
2012,07,17,15,57,23.10
2012,07,17,15,58,23.10
2012,07,17,15,59,23.10
2012,07,17,16,00,23.10
2012,07,17,16,01,23.20
2012,07,17,16,02,23.20
2012,07,17,16,03,23.30
2012,07,17,16,04,23.30
2012,07,17,16,05,23.20
2012,07,17,16,06,23.20
2012,07,17,16,07,23.30
2012,07,17,16,08,23.30
2012,07,17,16,09,23.40
2012,07,17,16,10,23.40
2012,07,17,16,11,23.50
2012,07,17,16,12,23.60
2012,07,17,16,13,23.70
2012,07,17,16,14,23.70
2012,07,17,16,15,23.70
2012,07,17,16,16,23.80
2012,07,17,16,17,23.80
2012,07,17,16,18,23.80
2012,07,17,16,19,23.80
2012,07,17,16,20,23.80
2012,07,17,16,21,23.80
2012,07,17,16,22,23.80
2012,07,17,16,23,23.80
2012,07,17,16,24,23.80
2012,07,17,16,25,23.70
2012,07,17,16,26,23.70
2012,07,17,16,27,23.70
2012,07,17,16,28,23.80
2012,07,17,16,29,23.80
2012,07,17,16,30,23.90
2012,07,17,16,31,23.90
2012,07,17,16,32,23.80
2012,07,17,16,33,23.80
2012,07,17,16,34,23.80
2012,07,17,16,35,23.70
2012,07,17,16,36,23.70
2012,07,17,16,37,23.60
2012,07,17,16,38,23.60
2012,07,17,16,39,23.70
2012,07,17,16,40,23.70
2012,07,17,16,41,23.70
2012,07,17,16,42,23.60
2012,07,17,16,43,23.60
2012,07,17,16,44,23.50
2012,07,17,16,45,23.40
2012,07,17,16,46,23.40
2012,07,17,16,47,23.40
2012,07,17,16,48,23.40
2012,07,17,16,49,23.40
2012,07,17,16,50,23.40
2012,07,17,16,51,23.40
2012,07,17,16,52,23.40
2012,07,17,16,53,23.40
2012,07,17,16,54,23.50
2012,07,17,16,55,23.50
2012,07,17,16,56,23.60
2012,07,17,16,57,23.60
2012,07,17,16,58,23.60
2012,07,17,16,59,23.60
2012,07,17,17,00,23.50
2012,07,17,17,01,23.50
2012,07,17,17,02,23.50
2012,07,17,17,03,23.40
2012,07,17,17,04,23.40
2012,07,17,17,05,23.40
2012,07,17,17,06,23.40
2012,07,17,17,07,23.40
2012,07,17,17,08,23.40
2012,07,17,17,09,23.40
2012,07,17,17,10,23.50
2012,07,17,17,11,23.40
2012,07,17,17,12,23.40
2012,07,17,17,13,23.30
2012,07,17,17,14,23.30
2012,07,17,17,15,23.10
2012,07,17,17,16,23.00
2012,07,17,17,17,22.90
2012,07,17,17,18,22.90
2012,07,17,17,19,22.90